Location: Unspecified
(52.4292°N, 19.3359°E)
Time: 23:00:09
(UTC+02:00)

SR - Pass Details

Date: 27 May 2024
Orbit: 580 x 858 km, 66.7° (Epoch: 12 June)

Event Time Altitude Azimuth Distance (km) Brightness Sun altitude
Rises 19:55:16 0° 269° (W) 3,110 ? 6.1°
Reaches altitude 10° 19:58:14 10° 285° (WNW) 2,137 ? 5.7°
Maximum altitude 20:01:51 21° 334° (NNW) 1,484 ? 5.3°
Drops below altitude 10° 20:05:19 10° 24° (NNE) 2,019 ? 4.8°
Sets 20:08:02 0° 41° (NE) 2,888 ? 4.4°
